Location: Pasadena, ca
(34.1243°N, 118.1037°W)
Time: 05:26:13
(UTC-07:00)

Tiangong 2 - Pass Details

Date: 10 October 2017
Orbit: 388 x 392 km, 42.8° (Epoch: 19 October)

Event Time Altitude Azimuth Distance (km) Brightness Sun altitude
Exits shadow 05:38:22 32° 320° (NW) 701 2.0 -16.4°
Maximum altitude 05:38:50 33° 340° (NNW) 674 2.1 -16.3°
Drops below altitude 10° 05:41:47 10° 47° (NE) 1,422 4.7 -15.7°
Sets 05:43:59 0° 57° (ENE) 2,280 6.0 -15.3°
